Location: Unspecified
(41.1637°N, 24.2901°E)
Time: 15:15:08
(UTC+02:00)

ISS - Pass Details

Date: 25 June 2022
Orbit: 414 x 420 km, 51.6° (Epoch: 05 July)

Event Time Altitude Azimuth Distance (km) Brightness Sun altitude
Exits shadow 03:21:26 - 161° (SSE) 1,593 -1.1 -13.6°
Reaches altitude 10° 03:22:00 10° 153° (SSE) 1,488 -1.2 -13.6°
Maximum altitude 03:23:20 12° 129° (SE) 1,377 -1.1 -13.4°
Drops below altitude 10° 03:24:40 10° 105° (ESE) 1,494 -0.6 -13.2°
Sets 03:27:50 0° 73° (ENE) 2,365 1.2 -12.8°
